Simultaneous Nadir Overpasses (SNOs) Predictions

Prediction of SNOs between GOES-14 and AQUA Satellite Orbit:

Table of predicted SNOs for the next 14.0 days since TLE Epoch: 1/24/2025
Index Date Time (GOES-14) GOES-14 Lat,Lon AQUA Lat,Lon Distance(km) Time Diff (sec)
1 01/26/2025 09:34:08 0.37,-108.02 0.06,-106.63 159.27 80
2 01/26/2025 21:56:23 -0.38,-107.98 -1.10,-111.36 383.85 80
3 01/28/2025 21:34:29 -0.38,-107.95 -0.10,-106.65 148.07 80
4 01/29/2025 09:56:34 0.39,-107.98 1.09,-111.35 383.03 80
5 01/31/2025 09:34:38 0.39,-107.95 0.12,-106.63 149.71 80
6 01/31/2025 21:56:52 -0.40,-107.90 -1.17,-111.35 393.04 80
7 02/02/2025 21:34:56 -0.40,-107.87 -0.11,-106.64 140.39 80
8 02/03/2025 09:54:21 0.40,-107.90 1.12,-111.34 390.55 80
9 02/05/2025 09:35:02 0.40,-107.87 0.15,-106.60 143.36 80
10 02/05/2025 21:57:16 -0.41,-107.82 -1.15,-111.34 399.11 80
